contact:dominique.lefevre@mio.osupytheas.fr, maurice.libes@osupytheas.fr, didier.mallarino@osupytheas.fr
Project:EMSO http://www.emso-fr.org/EMSO-France
Depth: 2436.0 m
Title:EMSO Ligure Ouest : Data MII capteur MICROCAT
DateTime_Computer,Latitude,Longitude,Temperature,Conductivity,Pressure,DateTime_Instrument
DateTime_Computer,Latitude,Longitude,degC,S m-1,dbar,DateTime_Instrument
2019-11-22T00:02:53Z,42.805,6.029,13.2958,4.59961,2469.9,2019-11-22T02:03:22Z
2019-11-22T00:05:57Z,42.805,6.029,13.2957,4.59959,2469.947,2019-11-22T02:06:25Z
2019-11-22T00:09:00Z,42.805,6.029,13.2958,4.59960,2469.96,2019-11-22T02:09:28Z
2019-11-22T00:12:03Z,42.805,6.029,13.2952,4.59958,2469.914,2019-11-22T02:12:31Z
2019-11-22T00:15:07Z,42.805,6.029,13.2954,4.59960,2469.923,2019-11-22T02:15:35Z
2019-11-22T00:18:10Z,42.805,6.029,13.2960,4.59961,2469.96,2019-11-22T02:18:38Z
2019-11-22T00:21:13Z,42.805,6.029,13.2959,4.59961,2469.947,2019-11-22T02:21:41Z
2019-11-22T00:24:16Z,42.805,6.029,13.2961,4.59962,2469.914,2019-11-22T02:24:45Z
2019-11-22T00:27:19Z,42.805,6.029,13.2958,4.59961,2469.947,2019-11-22T02:27:48Z
2019-11-22T00:30:23Z,42.805,6.029,13.2959,4.59960,2469.984,2019-11-22T02:30:51Z
2019-11-22T00:33:26Z,42.805,6.029,13.2964,4.59959,2469.947,2019-11-22T02:33:54Z
2019-11-22T00:36:29Z,42.805,6.029,13.2958,4.59958,2469.984,2019-11-22T02:36:57Z
2019-11-22T00:39:32Z,42.805,6.029,13.2957,4.59960,2469.947,2019-11-22T02:40:01Z
2019-11-22T00:42:35Z,42.805,6.029,13.2956,4.59960,2469.947,2019-11-22T02:43:04Z
2019-11-22T00:45:39Z,42.805,6.029,13.2958,4.59958,2469.923,2019-11-22T02:46:07Z
2019-11-22T00:48:42Z,42.805,6.029,13.2958,4.59960,2469.97,2019-11-22T02:49:10Z
2019-11-22T00:51:45Z,42.805,6.029,13.2958,4.59958,2469.947,2019-11-22T02:52:13Z
2019-11-22T00:54:48Z,42.805,6.029,13.2958,4.59961,2469.97,2019-11-22T02:55:17Z
2019-11-22T00:57:51Z,42.805,6.029,13.2961,4.59962,2469.96,2019-11-22T02:58:20Z
2019-11-22T01:00:55Z,42.805,6.029,13.2958,4.59958,2469.96,2019-11-22T03:01:23Z
2019-11-22T01:03:58Z,42.805,6.029,13.2956,4.59959,2469.947,2019-11-22T03:04:26Z
2019-11-22T01:07:01Z,42.805,6.029,13.2962,4.59959,2469.97,2019-11-22T03:07:29Z
2019-11-22T01:10:04Z,42.805,6.029,13.2957,4.59958,2469.97,2019-11-22T03:10:33Z
2019-11-22T01:13:08Z,42.805,6.029,13.2955,4.59958,2469.993,2019-11-22T03:13:36Z
2019-11-22T01:16:11Z,42.805,6.029,13.2956,4.59960,2470.007,2019-11-22T03:16:39Z
2019-11-22T01:19:14Z,42.805,6.029,13.2959,4.59960,2469.96,2019-11-22T03:19:42Z
2019-11-22T01:22:17Z,42.805,6.029,13.2959,4.59958,2469.993,2019-11-22T03:22:45Z
2019-11-22T01:25:20Z,42.805,6.029,13.2960,4.59960,2469.956,2019-11-22T03:25:49Z
2019-11-22T01:28:24Z,42.805,6.029,13.2957,4.59959,2469.97,2019-11-22T03:28:52Z
2019-11-22T01:31:27Z,42.805,6.029,13.2961,4.59961,2470.007,2019-11-22T03:31:55Z
2019-11-22T01:34:30Z,42.805,6.029,13.2959,4.59958,2470.007,2019-11-22T03:34:58Z
2019-11-22T01:37:33Z,42.805,6.029,13.2958,4.59959,2469.993,2019-11-22T03:38:01Z
2019-11-22T01:40:36Z,42.805,6.029,13.2959,4.59959,2470.007,2019-11-22T03:41:05Z
2019-11-22T01:43:40Z,42.805,6.029,13.2960,4.59959,2469.97,2019-11-22T03:44:08Z
2019-11-22T01:46:43Z,42.805,6.029,13.2958,4.59960,2469.97,2019-11-22T03:47:11Z
2019-11-22T01:49:46Z,42.805,6.029,13.2960,4.59961,2469.97,2019-11-22T03:50:14Z
2019-11-22T01:52:49Z,42.805,6.029,13.2957,4.59960,2470.03,2019-11-22T03:53:17Z
2019-11-22T01:55:52Z,42.805,6.029,13.2957,4.59960,2470.007,2019-11-22T03:56:21Z
2019-11-22T01:58:56Z,42.805,6.029,13.2959,4.59961,2469.993,2019-11-22T03:59:24Z
2019-11-22T02:01:59Z,42.805,6.029,13.2958,4.59960,2469.984,2019-11-22T04:02:27Z
2019-11-22T02:05:02Z,42.805,6.029,13.2958,4.59960,2470.007,2019-11-22T04:05:31Z
2019-11-22T02:08:06Z,42.805,6.029,13.2959,4.59961,2469.956,2019-11-22T04:08:34Z
2019-11-22T02:11:09Z,42.805,6.029,13.2957,4.59961,2469.984,2019-11-22T04:11:37Z
2019-11-22T02:14:12Z,42.805,6.029,13.2961,4.59959,2469.993,2019-11-22T04:14:40Z
2019-11-22T02:17:15Z,42.805,6.029,13.2959,4.59964,2469.993,2019-11-22T04:17:43Z
2019-11-22T02:20:18Z,42.805,6.029,13.2960,4.59963,2470.03,2019-11-22T04:20:47Z
2019-11-22T02:23:22Z,42.805,6.029,13.2956,4.59959,2470.007,2019-11-22T04:23:50Z
2019-11-22T02:26:25Z,42.805,6.029,13.2958,4.59959,2469.984,2019-11-22T04:26:53Z
2019-11-22T02:29:28Z,42.805,6.029,13.2957,4.59961,2469.984,2019-11-22T04:29:56Z
2019-11-22T02:32:31Z,42.805,6.029,13.2957,4.59960,2469.993,2019-11-22T04:32:59Z
2019-11-22T02:35:34Z,42.805,6.029,13.2957,4.59961,2469.993,2019-11-22T04:36:03Z
2019-11-22T02:38:38Z,42.805,6.029,13.2961,4.59961,2470.03,2019-11-22T04:39:06Z
2019-11-22T02:41:41Z,42.805,6.029,13.2960,4.59961,2470.017,2019-11-22T04:42:09Z
2019-11-22T02:44:44Z,42.805,6.029,13.2960,4.59960,2470.03,2019-11-22T04:45:12Z
2019-11-22T02:47:47Z,42.805,6.029,13.2961,4.59959,2469.993,2019-11-22T04:48:15Z
2019-11-22T02:50:50Z,42.805,6.029,13.2958,4.59958,2470.017,2019-11-22T04:51:19Z
2019-11-22T02:53:54Z,42.805,6.029,13.2960,4.59961,2470.03,2019-11-22T04:54:22Z
2019-11-22T02:56:57Z,42.805,6.029,13.2961,4.59961,2470.03,2019-11-22T04:57:25Z
2019-11-22T03:00:00Z,42.805,6.029,13.2957,4.59960,2470.017,2019-11-22T05:00:28Z
2019-11-22T03:03:03Z,42.805,6.029,13.2961,4.59964,2470.053,2019-11-22T05:03:31Z
2019-11-22T03:06:06Z,42.805,6.029,13.2959,4.59961,2469.993,2019-11-22T05:06:35Z
2019-11-22T03:09:09Z,42.805,6.029,13.2960,4.59960,2470.077,2019-11-22T05:09:38Z
2019-11-22T03:12:13Z,42.805,6.029,13.2961,4.59961,2470.03,2019-11-22T05:12:41Z
2019-11-22T03:15:16Z,42.805,6.029,13.2957,4.59960,2470.017,2019-11-22T05:15:44Z
2019-11-22T03:18:19Z,42.805,6.029,13.2959,4.59960,2470.04,2019-11-22T05:18:47Z
2019-11-22T03:21:22Z,42.805,6.029,13.2964,4.59958,2470.03,2019-11-22T05:21:51Z
2019-11-22T03:24:25Z,42.805,6.029,13.2959,4.59958,2470.017,2019-11-22T05:24:54Z
2019-11-22T03:27:29Z,42.805,6.029,13.2957,4.59961,2470.017,2019-11-22T05:27:57Z
2019-11-22T03:30:32Z,42.805,6.029,13.2958,4.59958,2470.03,2019-11-22T05:31:00Z
2019-11-22T03:33:35Z,42.805,6.029,13.2958,4.59960,2470.017,2019-11-22T05:34:03Z
2019-11-22T03:36:38Z,42.805,6.029,13.2960,4.59961,2469.993,2019-11-22T05:37:07Z
2019-11-22T03:39:42Z,42.805,6.029,13.2963,4.59961,2470.017,2019-11-22T05:40:10Z
2019-11-22T03:42:45Z,42.805,6.029,13.2959,4.59959,2470.03,2019-11-22T05:43:13Z
2019-11-22T03:45:48Z,42.805,6.029,13.2956,4.59960,2470.017,2019-11-22T05:46:16Z
2019-11-22T03:48:51Z,42.805,6.029,13.2961,4.59961,2470.017,2019-11-22T05:49:19Z
2019-11-22T03:51:54Z,42.805,6.029,13.2961,4.59961,2470.017,2019-11-22T05:52:23Z
2019-11-22T03:54:58Z,42.805,6.029,13.2958,4.59960,2470.053,2019-11-22T05:55:26Z
2019-11-22T03:58:01Z,42.805,6.029,13.2958,4.59961,2470.017,2019-11-22T05:58:29Z
2019-11-22T04:01:04Z,42.805,6.029,13.2961,4.59961,2469.993,2019-11-22T06:01:32Z
2019-11-22T04:04:07Z,42.805,6.029,13.2958,4.59960,2470.03,2019-11-22T06:04:35Z
2019-11-22T04:07:10Z,42.805,6.029,13.2955,4.59961,2470.017,2019-11-22T06:07:39Z
2019-11-22T04:10:13Z,42.805,6.029,13.2958,4.59958,2470.04,2019-11-22T06:10:42Z
2019-11-22T04:13:17Z,42.805,6.029,13.2959,4.59959,2470.03,2019-11-22T06:13:45Z
2019-11-22T04:16:20Z,42.805,6.029,13.2957,4.59958,2470.03,2019-11-22T06:16:48Z
2019-11-22T04:19:23Z,42.805,6.029,13.2958,4.59958,2470.063,2019-11-22T06:19:51Z
2019-11-22T04:22:26Z,42.805,6.029,13.2958,4.59958,2470.017,2019-11-22T06:22:54Z
2019-11-22T04:25:29Z,42.805,6.029,13.2958,4.59960,2470.063,2019-11-22T06:25:58Z
2019-11-22T04:28:33Z,42.805,6.029,13.2958,4.59961,2470.03,2019-11-22T06:29:01Z
2019-11-22T04:31:36Z,42.805,6.029,13.2957,4.59961,2470.03,2019-11-22T06:32:04Z
2019-11-22T04:34:39Z,42.805,6.029,13.2957,4.59958,2470.04,2019-11-22T06:35:07Z
2019-11-22T04:37:42Z,42.805,6.029,13.2959,4.59960,2470.017,2019-11-22T06:38:11Z
2019-11-22T04:40:45Z,42.805,6.029,13.2958,4.59961,2470.017,2019-11-22T06:41:14Z
2019-11-22T04:43:49Z,42.805,6.029,13.2957,4.59958,2470.007,2019-11-22T06:44:17Z
2019-11-22T04:46:52Z,42.805,6.029,13.2959,4.59961,2469.993,2019-11-22T06:47:20Z
2019-11-22T04:49:55Z,42.805,6.029,13.2957,4.59958,2470.017,2019-11-22T06:50:23Z
2019-11-22T04:52:58Z,42.805,6.029,13.2958,4.59958,2470.053,2019-11-22T06:53:27Z
2019-11-22T04:56:02Z,42.805,6.029,13.2960,4.59958,2470.017,2019-11-22T06:56:30Z
2019-11-22T04:59:05Z,42.805,6.029,13.2961,4.59960,2470.017,2019-11-22T06:59:33Z
2019-11-22T05:02:08Z,42.805,6.029,13.2958,4.59958,2470.04,2019-11-22T07:02:36Z
2019-11-22T05:05:11Z,42.805,6.029,13.2959,4.59959,2470.03,2019-11-22T07:05:39Z
2019-11-22T05:08:14Z,42.805,6.029,13.2957,4.59958,2470.04,2019-11-22T07:08:43Z
2019-11-22T05:11:18Z,42.805,6.029,13.2961,4.59958,2469.993,2019-11-22T07:11:46Z
2019-11-22T05:14:21Z,42.805,6.029,13.2959,4.59958,2470.017,2019-11-22T07:14:49Z
2019-11-22T05:17:24Z,42.805,6.029,13.2958,4.59958,2469.993,2019-11-22T07:17:52Z
2019-11-22T05:20:27Z,42.805,6.029,13.2953,4.59958,2470.017,2019-11-22T07:20:55Z
2019-11-22T05:23:30Z,42.805,6.029,13.2955,4.59959,2470.04,2019-11-22T07:23:59Z
2019-11-22T05:26:34Z,42.805,6.029,13.2961,4.59958,2470.007,2019-11-22T07:27:02Z
2019-11-22T05:29:37Z,42.805,6.029,13.2957,4.59958,2470.03,2019-11-22T07:30:05Z
2019-11-22T05:32:40Z,42.805,6.029,13.2957,4.59958,2470.03,2019-11-22T07:33:08Z
2019-11-22T05:35:43Z,42.805,6.029,13.2961,4.59958,2470.017,2019-11-22T07:36:12Z
2019-11-22T05:38:46Z,42.805,6.029,13.2958,4.59959,2470.007,2019-11-22T07:39:15Z
2019-11-22T05:41:50Z,42.805,6.029,13.2958,4.59960,2469.97,2019-11-22T07:42:18Z
2019-11-22T05:44:53Z,42.805,6.029,13.2958,4.59960,2470.007,2019-11-22T07:45:21Z
2019-11-22T05:47:56Z,42.805,6.029,13.2957,4.59961,2470.017,2019-11-22T07:48:24Z
2019-11-22T05:50:59Z,42.805,6.029,13.2957,4.59958,2469.993,2019-11-22T07:51:28Z
2019-11-22T05:54:02Z,42.805,6.029,13.2958,4.59958,2470.03,2019-11-22T07:54:31Z
2019-11-22T05:57:06Z,42.805,6.029,13.2962,4.59958,2469.993,2019-11-22T07:57:34Z
2019-11-22T06:00:09Z,42.805,6.029,13.2958,4.59960,2469.979,2019-11-22T08:00:37Z
2019-11-22T06:03:12Z,42.805,6.029,13.2957,4.59958,2470.017,2019-11-22T08:03:40Z
2019-11-22T06:06:15Z,42.805,6.029,13.2957,4.59958,2470.03,2019-11-22T08:06:44Z
2019-11-22T06:09:18Z,42.805,6.029,13.2958,4.59959,2470.03,2019-11-22T08:09:47Z
2019-11-22T06:12:22Z,42.805,6.029,13.2959,4.59958,2469.993,2019-11-22T08:12:50Z
2019-11-22T06:15:25Z,42.805,6.029,13.2958,4.59959,2470.007,2019-11-22T08:15:53Z
2019-11-22T06:18:28Z,42.805,6.029,13.2960,4.59958,2469.993,2019-11-22T08:18:56Z
2019-11-22T06:21:31Z,42.805,6.029,13.2955,4.59960,2469.984,2019-11-22T08:22:00Z
2019-11-22T06:24:34Z,42.805,6.029,13.2961,4.59958,2470.007,2019-11-22T08:25:03Z
2019-11-22T06:27:38Z,42.805,6.029,13.2957,4.59958,2470.03,2019-11-22T08:28:06Z
2019-11-22T06:30:41Z,42.805,6.029,13.2957,4.59958,2469.993,2019-11-22T08:31:09Z
2019-11-22T06:33:44Z,42.805,6.029,13.2961,4.59958,2470.007,2019-11-22T08:34:12Z
2019-11-22T06:36:47Z,42.805,6.029,13.2957,4.59958,2470.007,2019-11-22T08:37:16Z
2019-11-22T06:39:51Z,42.805,6.029,13.2960,4.59958,2469.97,2019-11-22T08:40:19Z
2019-11-22T06:42:54Z,42.805,6.029,13.2958,4.59960,2469.993,2019-11-22T08:43:22Z
2019-11-22T06:45:57Z,42.805,6.029,13.2960,4.59958,2469.993,2019-11-22T08:46:25Z
2019-11-22T06:49:00Z,42.805,6.029,13.2959,4.59958,2469.993,2019-11-22T08:49:28Z
2019-11-22T06:52:03Z,42.805,6.029,13.2957,4.59958,2470.03,2019-11-22T08:52:32Z
2019-11-22T06:55:07Z,42.805,6.029,13.2962,4.59958,2470.007,2019-11-22T08:55:35Z
2019-11-22T06:58:10Z,42.805,6.029,13.2959,4.59958,2469.97,2019-11-22T08:58:38Z
2019-11-22T07:01:13Z,42.805,6.029,13.2957,4.59960,2469.947,2019-11-22T09:01:41Z
2019-11-22T07:04:16Z,42.805,6.029,13.2958,4.59958,2470.03,2019-11-22T09:04:44Z
2019-11-22T07:07:19Z,42.805,6.029,13.2958,4.59958,2469.97,2019-11-22T09:07:48Z
2019-11-22T07:10:23Z,42.805,6.029,13.2957,4.59958,2469.97,2019-11-22T09:10:51Z
2019-11-22T07:13:26Z,42.805,6.029,13.2958,4.59958,2469.97,2019-11-22T09:13:54Z
2019-11-22T07:16:29Z,42.805,6.029,13.2957,4.59959,2469.97,2019-11-22T09:16:57Z
2019-11-22T07:19:32Z,42.805,6.029,13.2956,4.59959,2469.993,2019-11-22T09:20:01Z
2019-11-22T07:22:36Z,42.805,6.029,13.2960,4.59960,2469.984,2019-11-22T09:23:04Z
2019-11-22T07:25:39Z,42.805,6.029,13.2958,4.59961,2469.97,2019-11-22T09:26:07Z
2019-11-22T07:28:42Z,42.805,6.029,13.2958,4.59958,2469.984,2019-11-22T09:29:10Z
2019-11-22T07:31:45Z,42.805,6.029,13.2955,4.59959,2469.97,2019-11-22T09:32:13Z
2019-11-22T07:34:48Z,42.805,6.029,13.2961,4.59960,2469.984,2019-11-22T09:35:17Z
2019-11-22T07:37:52Z,42.805,6.029,13.2957,4.59958,2469.96,2019-11-22T09:38:20Z
2019-11-22T07:40:55Z,42.805,6.029,13.2960,4.59959,2469.937,2019-11-22T09:41:23Z
2019-11-22T07:43:58Z,42.805,6.029,13.2957,4.59958,2469.984,2019-11-22T09:44:26Z
2019-11-22T07:47:01Z,42.805,6.029,13.2958,4.59958,2469.97,2019-11-22T09:47:30Z
2019-11-22T07:50:04Z,42.805,6.029,13.2955,4.59958,2469.923,2019-11-22T09:50:33Z
2019-11-22T07:53:08Z,42.805,6.029,13.2961,4.59958,2469.993,2019-11-22T09:53:36Z
2019-11-22T07:56:11Z,42.805,6.029,13.2958,4.59958,2469.947,2019-11-22T09:56:39Z
2019-11-22T07:59:14Z,42.805,6.029,13.2957,4.59958,2469.97,2019-11-22T09:59:42Z
2019-11-22T08:02:17Z,42.805,6.029,13.2961,4.59958,2469.947,2019-11-22T10:02:46Z
2019-11-22T08:05:21Z,42.805,6.029,13.2958,4.59957,2469.97,2019-11-22T10:05:49Z
2019-11-22T08:08:24Z,42.805,6.029,13.2957,4.59959,2469.923,2019-11-22T10:08:52Z
2019-11-22T08:11:27Z,42.805,6.029,13.2960,4.59961,2469.97,2019-11-22T10:11:55Z
2019-11-22T08:14:30Z,42.805,6.029,13.2957,4.59961,2469.947,2019-11-22T10:14:58Z
2019-11-22T08:17:33Z,42.805,6.029,13.2958,4.59960,2469.947,2019-11-22T10:18:02Z
2019-11-22T08:20:37Z,42.805,6.029,13.2961,4.59961,2469.984,2019-11-22T10:21:05Z
2019-11-22T08:23:40Z,42.805,6.029,13.2956,4.59960,2469.97,2019-11-22T10:24:08Z
2019-11-22T08:26:43Z,42.805,6.029,13.2959,4.59957,2469.97,2019-11-22T10:27:11Z
2019-11-22T08:29:46Z,42.805,6.029,13.2957,4.59958,2469.96,2019-11-22T10:30:15Z
2019-11-22T08:32:50Z,42.805,6.029,13.2957,4.59960,2469.923,2019-11-22T10:33:18Z
2019-11-22T08:35:53Z,42.805,6.029,13.2958,4.59958,2469.984,2019-11-22T10:36:21Z
2019-11-22T08:38:56Z,42.805,6.029,13.2956,4.59961,2469.96,2019-11-22T10:39:24Z
2019-11-22T08:41:59Z,42.805,6.029,13.2958,4.59960,2469.97,2019-11-22T10:42:27Z
2019-11-22T08:45:02Z,42.805,6.029,13.2962,4.59965,2469.947,2019-11-22T10:45:31Z
2019-11-22T08:48:06Z,42.805,6.029,13.2957,4.59961,2469.947,2019-11-22T10:48:34Z
2019-11-22T08:51:09Z,42.805,6.029,13.2959,4.59958,2469.96,2019-11-22T10:51:37Z
2019-11-22T08:54:12Z,42.805,6.029,13.2962,4.59958,2469.96,2019-11-22T10:54:41Z
2019-11-22T08:57:16Z,42.805,6.029,13.2959,4.59958,2469.923,2019-11-22T10:57:44Z
2019-11-22T09:00:19Z,42.805,6.029,13.2958,4.59960,2469.923,2019-11-22T11:00:47Z
2019-11-22T09:03:22Z,42.805,6.029,13.2956,4.59958,2469.984,2019-11-22T11:03:50Z
2019-11-22T09:06:25Z,42.805,6.029,13.2958,4.59958,2469.97,2019-11-22T11:06:54Z
2019-11-22T09:09:28Z,42.805,6.029,13.2957,4.59958,2469.97,2019-11-22T11:09:57Z
2019-11-22T09:12:32Z,42.805,6.029,13.2958,4.59959,2469.947,2019-11-22T11:13:00Z
2019-11-22T09:15:35Z,42.805,6.029,13.2960,4.59960,2469.933,2019-11-22T11:16:03Z
2019-11-22T09:18:38Z,42.805,6.029,13.2958,4.59958,2469.96,2019-11-22T11:19:06Z
2019-11-22T09:21:41Z,42.805,6.029,13.2961,4.59958,2469.947,2019-11-22T11:22:10Z
2019-11-22T09:24:45Z,42.805,6.029,13.2961,4.59960,2469.947,2019-11-22T11:25:13Z
2019-11-22T09:27:48Z,42.805,6.029,13.2961,4.59958,2469.96,2019-11-22T11:28:16Z
2019-11-22T09:30:51Z,42.805,6.029,13.2958,4.59958,2469.947,2019-11-22T11:31:19Z
2019-11-22T09:33:54Z,42.805,6.029,13.2957,4.59958,2469.937,2019-11-22T11:34:23Z
2019-11-22T09:36:58Z,42.805,6.029,13.2957,4.59957,2469.96,2019-11-22T11:37:26Z
2019-11-22T09:40:01Z,42.805,6.029,13.2960,4.59958,2469.947,2019-11-22T11:40:29Z
2019-11-22T09:43:04Z,42.805,6.029,13.2957,4.59958,2469.937,2019-11-22T11:43:32Z
2019-11-22T09:46:07Z,42.805,6.029,13.2957,4.59958,2469.947,2019-11-22T11:46:36Z
2019-11-22T09:49:10Z,42.805,6.029,13.2960,4.59958,2469.96,2019-11-22T11:49:39Z
2019-11-22T09:52:14Z,42.805,6.029,13.2960,4.59960,2469.923,2019-11-22T11:52:42Z
2019-11-22T09:55:17Z,42.805,6.029,13.2958,4.59958,2469.96,2019-11-22T11:55:45Z
2019-11-22T09:58:20Z,42.805,6.029,13.2961,4.59961,2469.97,2019-11-22T11:58:48Z
2019-11-22T10:01:23Z,42.805,6.029,13.2959,4.59960,2469.923,2019-11-22T12:01:52Z
2019-11-22T10:04:27Z,42.805,6.029,13.2958,4.59958,2469.96,2019-11-22T12:04:55Z
2019-11-22T10:07:30Z,42.805,6.029,13.2953,4.59958,2469.947,2019-11-22T12:07:58Z
2019-11-22T10:10:33Z,42.805,6.029,13.2955,4.59957,2469.947,2019-11-22T12:11:01Z
2019-11-22T10:13:36Z,42.805,6.029,13.2960,4.59957,2469.947,2019-11-22T12:14:05Z
2019-11-22T10:16:39Z,42.805,6.029,13.2960,4.59958,2469.947,2019-11-22T12:17:08Z
2019-11-22T10:19:43Z,42.805,6.029,13.2958,4.59958,2469.947,2019-11-22T12:20:11Z
2019-11-22T10:22:46Z,42.805,6.029,13.2957,4.59961,2469.947,2019-11-22T12:23:14Z
2019-11-22T10:25:49Z,42.805,6.029,13.2952,4.59961,2469.947,2019-11-22T12:26:17Z
2019-11-22T10:28:52Z,42.805,6.029,13.2963,4.59961,2469.947,2019-11-22T12:29:21Z
2019-11-22T10:31:56Z,42.805,6.029,13.2962,4.59961,2469.947,2019-11-22T12:32:24Z
2019-11-22T10:34:59Z,42.805,6.029,13.2958,4.59959,2469.923,2019-11-22T12:35:27Z
2019-11-22T10:38:02Z,42.805,6.029,13.2958,4.59961,2469.96,2019-11-22T12:38:30Z
2019-11-22T10:41:05Z,42.805,6.029,13.2960,4.59958,2469.933,2019-11-22T12:41:34Z
2019-11-22T10:44:09Z,42.805,6.029,13.2957,4.59960,2469.97,2019-11-22T12:44:37Z
2019-11-22T10:47:12Z,42.805,6.029,13.2958,4.59958,2469.947,2019-11-22T12:47:40Z
2019-11-22T10:50:15Z,42.805,6.029,13.2961,4.59961,2469.947,2019-11-22T12:50:43Z
2019-11-22T10:53:18Z,42.805,6.029,13.2958,4.59958,2469.96,2019-11-22T12:53:47Z
2019-11-22T10:56:22Z,42.805,6.029,13.2959,4.59958,2469.947,2019-11-22T12:56:50Z
2019-11-22T10:59:25Z,42.805,6.029,13.2957,4.59958,2469.97,2019-11-22T12:59:53Z
2019-11-22T11:02:28Z,42.805,6.029,13.2957,4.59961,2469.97,2019-11-22T13:02:56Z
2019-11-22T11:05:31Z,42.805,6.029,13.2958,4.59961,2469.97,2019-11-22T13:06:00Z
2019-11-22T11:08:34Z,42.805,6.029,13.2961,4.59958,2469.97,2019-11-22T13:09:03Z
2019-11-22T11:11:38Z,42.805,6.029,13.2960,4.59960,2469.993,2019-11-22T13:12:06Z
2019-11-22T11:14:41Z,42.805,6.029,13.2955,4.59959,2469.984,2019-11-22T13:15:09Z
2019-11-22T11:17:44Z,42.805,6.029,13.2957,4.59958,2469.97,2019-11-22T13:18:12Z
2019-11-22T11:20:47Z,42.805,6.029,13.2958,4.59958,2469.993,2019-11-22T13:21:16Z
2019-11-22T11:23:50Z,42.805,6.029,13.2961,4.59961,2469.984,2019-11-22T13:24:19Z
2019-11-22T11:26:54Z,42.805,6.029,13.2960,4.59961,2469.97,2019-11-22T13:27:22Z
2019-11-22T11:29:57Z,42.805,6.029,13.2957,4.59959,2470.007,2019-11-22T13:30:25Z
2019-11-22T11:33:00Z,42.805,6.029,13.2956,4.59959,2469.947,2019-11-22T13:33:28Z
2019-11-22T11:36:03Z,42.805,6.029,13.2955,4.59959,2469.96,2019-11-22T13:36:32Z
2019-11-22T11:39:06Z,42.805,6.029,13.2955,4.59961,2470.017,2019-11-22T13:39:35Z
2019-11-22T11:42:10Z,42.805,6.029,13.2960,4.59961,2469.993,2019-11-22T13:42:38Z
2019-11-22T11:45:13Z,42.805,6.029,13.2960,4.59960,2469.993,2019-11-22T13:45:41Z
2019-11-22T11:48:16Z,42.805,6.029,13.2953,4.59961,2469.984,2019-11-22T13:48:44Z
2019-11-22T11:51:19Z,42.805,6.029,13.2957,4.59961,2470.007,2019-11-22T13:51:48Z
2019-11-22T11:54:23Z,42.805,6.029,13.2958,4.59961,2469.993,2019-11-22T13:54:51Z
2019-11-22T11:57:26Z,42.805,6.029,13.2960,4.59958,2469.993,2019-11-22T13:57:54Z
2019-11-22T12:00:29Z,42.805,6.029,13.2959,4.59960,2469.993,2019-11-22T14:00:57Z
2019-11-22T12:03:32Z,42.805,6.029,13.2958,4.59961,2469.993,2019-11-22T14:04:00Z
2019-11-22T12:06:35Z,42.805,6.029,13.2958,4.59958,2469.993,2019-11-22T14:07:04Z
2019-11-22T12:09:39Z,42.805,6.029,13.2958,4.59960,2470.007,2019-11-22T14:10:07Z
2019-11-22T12:12:42Z,42.805,6.029,13.2959,4.59960,2469.993,2019-11-22T14:13:10Z
2019-11-22T12:15:45Z,42.805,6.029,13.2958,4.59961,2470.007,2019-11-22T14:16:13Z
2019-11-22T12:18:48Z,42.805,6.029,13.2957,4.59961,2469.993,2019-11-22T14:19:16Z
2019-11-22T12:21:51Z,42.805,6.029,13.2957,4.59958,2470.003,2019-11-22T14:22:20Z
2019-11-22T12:24:55Z,42.805,6.029,13.2958,4.59960,2469.993,2019-11-22T14:25:23Z
2019-11-22T12:27:58Z,42.805,6.029,13.2959,4.59960,2470.04,2019-11-22T14:28:26Z
2019-11-22T12:31:01Z,42.805,6.029,13.2960,4.59962,2470.03,2019-11-22T14:31:30Z
2019-11-22T12:34:04Z,42.805,6.029,13.2960,4.59962,2470.063,2019-11-22T14:34:33Z
2019-11-22T12:37:08Z,42.805,6.029,13.2960,4.59961,2470.017,2019-11-22T14:37:36Z
2019-11-22T12:40:11Z,42.805,6.029,13.2961,4.59961,2470.03,2019-11-22T14:40:39Z
2019-11-22T12:43:14Z,42.805,6.029,13.2961,4.59961,2469.993,2019-11-22T14:43:42Z
2019-11-22T12:46:17Z,42.805,6.029,13.2956,4.59960,2470.017,2019-11-22T14:46:45Z
2019-11-22T12:49:20Z,42.805,6.029,13.2960,4.59959,2470.063,2019-11-22T14:49:49Z
2019-11-22T12:52:24Z,42.805,6.029,13.2958,4.59964,2470.04,2019-11-22T14:52:52Z
2019-11-22T12:55:27Z,42.805,6.029,13.2960,4.59961,2470.077,2019-11-22T14:55:55Z
2019-11-22T12:58:30Z,42.805,6.029,13.2962,4.59961,2470.017,2019-11-22T14:58:59Z
2019-11-22T13:01:33Z,42.805,6.029,13.2963,4.59961,2470.017,2019-11-22T15:02:02Z
2019-11-22T13:04:37Z,42.805,6.029,13.2958,4.59960,2470.053,2019-11-22T15:05:05Z
2019-11-22T13:07:40Z,42.805,6.029,13.2961,4.59960,2470.04,2019-11-22T15:08:08Z
2019-11-22T13:10:43Z,42.805,6.029,13.2958,4.59961,2470.04,2019-11-22T15:11:11Z
2019-11-22T13:13:46Z,42.805,6.029,13.2959,4.59960,2470.053,2019-11-22T15:14:15Z
2019-11-22T13:16:50Z,42.805,6.029,13.2958,4.59961,2470.053,2019-11-22T15:17:18Z
2019-11-22T13:19:53Z,42.805,6.029,13.2958,4.59963,2470.04,2019-11-22T15:20:21Z
2019-11-22T13:22:56Z,42.805,6.029,13.2957,4.59961,2470.04,2019-11-22T15:23:24Z
2019-11-22T13:25:59Z,42.805,6.029,13.2961,4.59961,2470.087,2019-11-22T15:26:27Z
2019-11-22T13:29:02Z,42.805,6.029,13.2960,4.59961,2470.04,2019-11-22T15:29:31Z
2019-11-22T13:32:06Z,42.805,6.029,13.2958,4.59962,2470.053,2019-11-22T15:32:34Z
2019-11-22T13:35:09Z,42.805,6.029,13.2955,4.59961,2470.063,2019-11-22T15:35:37Z
2019-11-22T13:38:12Z,42.805,6.029,13.2958,4.59966,2470.077,2019-11-22T15:38:40Z
2019-11-22T13:41:15Z,42.805,6.029,13.2958,4.59961,2470.053,2019-11-22T15:41:43Z
2019-11-22T13:44:18Z,42.805,6.029,13.2961,4.59961,2470.063,2019-11-22T15:44:47Z
2019-11-22T13:47:21Z,42.805,6.029,13.2961,4.59962,2470.053,2019-11-22T15:47:50Z
2019-11-22T13:50:25Z,42.805,6.029,13.2957,4.59960,2470.04,2019-11-22T15:50:53Z
2019-11-22T13:53:28Z,42.805,6.029,13.2962,4.59960,2470.04,2019-11-22T15:53:56Z
2019-11-22T13:56:31Z,42.805,6.029,13.2958,4.59959,2470.063,2019-11-22T15:56:59Z
2019-11-22T13:59:34Z,42.805,6.029,13.2958,4.59961,2470.1,2019-11-22T16:00:02Z
2019-11-22T14:02:37Z,42.805,6.029,13.2960,4.59960,2470.04,2019-11-22T16:03:06Z
2019-11-22T14:05:41Z,42.805,6.029,13.2958,4.59961,2470.063,2019-11-22T16:06:09Z
2019-11-22T14:08:44Z,42.805,6.029,13.2958,4.59961,2470.087,2019-11-22T16:09:12Z
2019-11-22T14:11:47Z,42.805,6.029,13.2959,4.59961,2470.063,2019-11-22T16:12:15Z
2019-11-22T14:14:50Z,42.805,6.029,13.2959,4.59961,2470.087,2019-11-22T16:15:18Z
2019-11-22T14:17:53Z,42.805,6.029,13.2957,4.59961,2470.063,2019-11-22T16:18:22Z
2019-11-22T14:20:57Z,42.805,6.029,13.2960,4.59961,2470.1,2019-11-22T16:21:25Z
2019-11-22T14:24:00Z,42.805,6.029,13.2961,4.59961,2470.063,2019-11-22T16:24:28Z
2019-11-22T14:27:03Z,42.805,6.029,13.2958,4.59961,2470.087,2019-11-22T16:27:31Z
2019-11-22T14:30:06Z,42.805,6.029,13.2959,4.59961,2470.087,2019-11-22T16:30:35Z
2019-11-22T14:33:10Z,42.805,6.029,13.2959,4.59960,2470.1,2019-11-22T16:33:38Z
2019-11-22T14:36:13Z,42.805,6.029,13.2958,4.59961,2470.077,2019-11-22T16:36:41Z
2019-11-22T14:39:16Z,42.805,6.029,13.2958,4.59961,2470.063,2019-11-22T16:39:44Z
2019-11-22T14:42:19Z,42.805,6.029,13.2962,4.59961,2470.1,2019-11-22T16:42:48Z
2019-11-22T14:45:22Z,42.805,6.029,13.2958,4.59961,2470.1,2019-11-22T16:45:51Z
2019-11-22T14:48:26Z,42.805,6.029,13.2957,4.59960,2470.11,2019-11-22T16:48:54Z
2019-11-22T14:51:29Z,42.805,6.029,13.2954,4.59962,2470.087,2019-11-22T16:51:57Z
2019-11-22T14:54:32Z,42.805,6.029,13.2958,4.59960,2470.087,2019-11-22T16:55:00Z
2019-11-22T14:57:35Z,42.805,6.029,13.2959,4.59960,2470.11,2019-11-22T16:58:04Z
2019-11-22T15:00:39Z,42.805,6.029,13.2957,4.59960,2470.087,2019-11-22T17:01:07Z
2019-11-22T15:03:42Z,42.805,6.029,13.2961,4.59962,2470.11,2019-11-22T17:04:10Z